Rose Hill, VA

10:23 PM EDT on August 30, 2016 (GMT -0400)
Jonesville

Weather History for K0VG - December, 2012

Change the Weather History Date:

Sunday, December 30, 2012

  Actual Average (KLOZ) Record (KLOZ)
Temperature  
Mean Temperature 29 °F 36 °F  
Max Temperature 35 °F 45 °F 70 °F (1990)
Min Temperature 23 °F 27 °F -1 °F (1983)
Degree Days  
Heating Degree Days 36 29  
Month to date heating degree days 793  
Since 1 July heating degree days 1623  
Cooling Degree Days 0 0  
Month to date cooling degree days 0  
Year to date cooling degree days 1190  
Moisture  
Dew Point 20 °F    
Average Humidity 74    
Maximum Humidity 100    
Minimum Humidity 52    
Precipitation  
Precipitation 0.01 in 0.12 in 1.96 in (1969)
Month to date precipitation 4.12  
Year to date precipitation 47.02  
Sea Level Pressure  
Sea Level Pressure 30.39 in    
Wind  
Wind Speed 5 mph (West)    
Max Wind Speed 13 mph    
Max Gust Speed 18 mph    
Visibility 10 miles    
Events Rain    
T = Trace of Precipitation, MM = Missing Value Source: NWS Daily Summary

Daily Weather History Graph

Daily Weather History Graph

Search for Another Location

Airport or City:

Trip Planner

Search our weather history database for the weather conditions in past years. The results will help you decide how hot, cold, wet, or windy it might be!

Date:

Astronomy

Dec. 30, 2012 Rise Set
Actual Time 7:44 AM EST 5:26 PM EST
Civil Twilight 7:16 AM EST 5:55 PM EST
Nautical Twilight 6:43 AM EST 6:27 PM EST
Astronomical Twilight 6:12 AM EST 6:59 PM EST
Moon 7:52 PM EST (12/30) 8:56 AM EST (12/30)
Length of Visible Light 10h 39m
Length of Day
9h 41m
Waning Gibbous, 95% of the Moon is Illuminated
Dec 30
Waning Gibbous
Jan 4
Last Quarter
Jan 11
New
Jan 18
First Quarter
Jan 26
Full

Hourly Weather History & Observations

Time (EST) Temp. Windchill Dew Point Humidity Pressure Visibility Wind Dir Wind Speed Gust Speed Precip Events Conditions
12:15 AM 28.4 °F 20.4 °F 21.2 °F 74% 30.21 in 10.0 mi WNW 8.1 mph - N/A Rain Light Freezing Rain
12:35 AM 28.4 °F 20.4 °F 19.4 °F 69% 30.22 in 10.0 mi NW 8.1 mph 16.1 mph N/A   Overcast
12:55 AM 28.4 °F 19.7 °F 21.2 °F 74% 30.22 in 10.0 mi WNW 9.2 mph - N/A Rain Light Freezing Rain
1:15 AM 28.4 °F 20.4 °F 19.4 °F 69% 30.22 in 10.0 mi WNW 8.1 mph - N/A   Overcast
1:35 AM 28.4 °F 19.1 °F 21.2 °F 74% 30.22 in 10.0 mi NW 10.4 mph - N/A   Overcast
1:55 AM 28.4 °F 22.2 °F 21.2 °F 74% 30.24 in 10.0 mi WNW 5.8 mph - N/A Rain Light Freezing Rain
2:15 AM 28.4 °F 18.5 °F 19.4 °F 69% 30.25 in 10.0 mi WNW 11.5 mph 18.4 mph N/A Rain Light Freezing Rain
2:35 AM 28.4 °F 19.1 °F 19.4 °F 69% 30.26 in 10.0 mi West 10.4 mph - N/A   Overcast
2:55 AM 28.4 °F 20.4 °F 21.2 °F 74% 30.28 in 8.0 mi West 8.1 mph - N/A Rain Light Freezing Rain
3:15 AM 26.6 °F 19.1 °F 21.2 °F 80% 30.29 in 7.0 mi West 6.9 mph - N/A Rain Light Freezing Rain
3:35 AM 26.6 °F 15.7 °F 21.2 °F 80% 30.30 in 5.0 mi WNW 12.7 mph 17.3 mph 0.01 in   Scattered Clouds
3:55 AM 26.6 °F 16.8 °F 19.4 °F 74% 30.31 in 9.0 mi West 10.4 mph - 0.01 in Rain Light Freezing Rain
4:15 AM 26.6 °F 20.0 °F 19.4 °F 74% 30.32 in 10.0 mi West 5.8 mph - N/A   Overcast
4:35 AM 26.6 °F 19.1 °F 19.4 °F 74% 30.33 in 10.0 mi West 6.9 mph - N/A   Overcast
4:55 AM 26.6 °F 18.2 °F 17.6 °F 69% 30.33 in 10.0 mi West 8.1 mph - N/A   Overcast
5:15 AM 26.6 °F 19.1 °F 17.6 °F 69% 30.34 in 10.0 mi WNW 6.9 mph - N/A   Mostly Cloudy
5:35 AM 26.6 °F 17.5 °F 17.6 °F 69% 30.35 in 10.0 mi NW 9.2 mph - N/A   Mostly Cloudy
5:55 AM 24.8 °F - 17.6 °F 74% 30.35 in 10.0 mi Calm Calm - N/A   Mostly Cloudy
6:15 AM 24.8 °F 16.9 °F 17.6 °F 74% 30.37 in 10.0 mi WNW 6.9 mph - N/A   Mostly Cloudy
6:35 AM 24.8 °F 16.9 °F 17.6 °F 74% 30.39 in 10.0 mi West 6.9 mph - N/A   Mostly Cloudy
6:55 AM 24.8 °F 19.1 °F 17.6 °F 74% 30.40 in 10.0 mi West 4.6 mph - N/A   Mostly Cloudy
7:35 AM 24.8 °F 20.5 °F 17.6 °F 74% 30.41 in 10.0 mi NW 3.5 mph - N/A   Mostly Cloudy
7:55 AM 24.8 °F - 17.6 °F 74% 30.42 in 10.0 mi Calm Calm - N/A   Overcast
8:15 AM 24.8 °F - 17.6 °F 74% 30.42 in 10.0 mi Calm Calm - N/A   Overcast
8:35 AM 24.8 °F - 17.6 °F 74% 30.43 in 10.0 mi Calm Calm - N/A   Overcast
8:55 AM 26.6 °F - 17.6 °F 69% 30.44 in 10.0 mi Calm Calm - N/A   Overcast
9:15 AM 26.6 °F - 17.6 °F 69% 30.45 in 10.0 mi Calm Calm - N/A   Overcast
9:35 AM 26.6 °F 22.6 °F 17.6 °F 69% 30.45 in 10.0 mi WNW 3.5 mph - N/A   Overcast
9:55 AM 26.6 °F - 17.6 °F 69% 30.46 in 10.0 mi Calm Calm - N/A   Overcast
10:15 AM 26.6 °F - 17.6 °F 69% 30.46 in 10.0 mi Calm Calm - N/A   Overcast
10:35 AM 26.6 °F - 17.6 °F 69% 30.47 in 10.0 mi Calm Calm - N/A   Overcast
10:55 AM 26.6 °F - 17.6 °F 69% 30.47 in 10.0 mi Calm Calm - N/A   Overcast
11:15 AM 28.4 °F 24.6 °F 19.4 °F 69% 30.48 in 10.0 mi West 3.5 mph - N/A   Overcast
11:35 AM 28.4 °F 24.6 °F 19.4 °F 69% 30.48 in 10.0 mi WSW 3.5 mph - N/A   Mostly Cloudy
11:55 AM 28.4 °F 22.2 °F 19.4 °F 69% 30.47 in 10.0 mi SW 5.8 mph - N/A   Mostly Cloudy
12:15 PM 28.4 °F 21.2 °F 19.4 °F 69% 30.46 in 10.0 mi SW 6.9 mph - N/A   Mostly Cloudy
12:35 PM 32.0 °F 24.8 °F 19.4 °F 60% 30.46 in 10.0 mi WSW 8.1 mph - N/A   Mostly Cloudy
12:55 PM 32.0 °F 27.5 °F 19.4 °F 60% 30.46 in 10.0 mi SW 4.6 mph - N/A   Mostly Cloudy
1:15 PM 32.0 °F 27.5 °F 19.4 °F 60% 30.45 in 10.0 mi WSW 4.6 mph - N/A   Partly Cloudy
1:35 PM 32.0 °F - 19.4 °F 60% 30.44 in 10.0 mi Calm Calm - N/A   Clear
1:55 PM 32.0 °F - 19.4 °F 60% 30.42 in 10.0 mi Calm Calm - N/A   Clear
2:15 PM 32.0 °F - 19.4 °F 60% 30.42 in 10.0 mi Calm Calm - N/A   Clear
2:35 PM 33.8 °F - 19.4 °F 56% 30.41 in 10.0 mi Calm Calm - N/A   Clear
2:55 PM 33.8 °F - 19.4 °F 56% 30.40 in 10.0 mi Calm Calm - N/A   Clear
3:15 PM 35.6 °F - 19.4 °F 52% 30.39 in 10.0 mi Calm Calm - N/A   Clear
3:35 PM 35.6 °F - 19.4 °F 52% 30.39 in 10.0 mi Calm Calm - N/A   Clear
3:55 PM 33.8 °F 29.6 °F 19.4 °F 56% 30.40 in 10.0 mi SSW 4.6 mph - N/A   Clear
4:15 PM 35.6 °F 31.7 °F 19.4 °F 52% 30.41 in 10.0 mi WSW 4.6 mph - N/A   Clear
4:35 PM 35.6 °F - 19.4 °F 52% 30.42 in 10.0 mi Calm Calm - N/A   Clear
4:55 PM 33.8 °F 29.6 °F 21.2 °F 60% 30.42 in 10.0 mi WSW 4.6 mph - N/A   Clear
5:15 PM 33.8 °F 30.8 °F 21.2 °F 60% 30.43 in 10.0 mi West 3.5 mph - N/A   Clear
5:35 PM 32.0 °F 28.7 °F 23.0 °F 69% 30.44 in 10.0 mi WSW 3.5 mph - N/A   Clear
5:55 PM 32.0 °F - 24.8 °F 75% 30.44 in 10.0 mi Calm Calm - N/A   Clear
6:15 PM 30.2 °F - 24.8 °F 80% 30.45 in 10.0 mi Calm Calm - N/A   Clear
6:35 PM 28.4 °F - 24.8 °F 86% 30.44 in 10.0 mi Calm Calm - N/A   Clear
6:55 PM 26.6 °F 22.6 °F 24.8 °F 93% 30.43 in 10.0 mi East 3.5 mph - N/A   Clear
7:15 PM 26.6 °F - 23.0 °F 86% 30.42 in 10.0 mi Calm Calm - N/A   Clear
7:35 PM 26.6 °F - 23.0 °F 86% 30.43 in 10.0 mi Calm Calm - N/A   Clear
7:55 PM 26.6 °F - 23.0 °F 86% 30.43 in 10.0 mi Calm Calm - N/A   Clear
8:15 PM 26.6 °F - 23.0 °F 86% 30.43 in 10.0 mi Calm Calm - N/A   Clear
8:35 PM 24.8 °F - 23.0 °F 93% 30.42 in 10.0 mi Calm Calm - N/A   Clear
8:55 PM 24.8 °F 20.5 °F 23.0 °F 93% 30.42 in 10.0 mi NNE 3.5 mph - N/A   Clear
9:15 PM 24.8 °F - 23.0 °F 93% 30.41 in 10.0 mi Calm Calm - N/A   Clear
9:35 PM 24.8 °F - 23.0 °F 93% 30.41 in 10.0 mi Calm Calm - N/A   Clear
9:55 PM 24.8 °F - 23.0 °F 93% 30.41 in 10.0 mi Calm Calm - N/A   Clear
10:15 PM 23.0 °F - 23.0 °F 100% 30.40 in 10.0 mi Calm Calm - N/A   Clear
10:35 PM 23.0 °F - 23.0 °F 100% 30.40 in 10.0 mi Calm Calm - N/A   Clear
10:55 PM 23.0 °F - 21.2 °F 93% 30.40 in 10.0 mi Calm Calm - N/A   Clear
11:15 PM 23.0 °F - 21.2 °F 93% 30.40 in 10.0 mi Calm Calm - N/A   Clear
11:35 PM 23.0 °F - 21.2 °F 93% 30.40 in 10.0 mi Calm Calm - N/A   Clear
11:55 PM 23.0 °F - 21.2 °F 93% 30.40 in 10.0 mi Calm Calm - N/A   Clear